TimeCST,TemperatureF,Dew PointF,Humidity,Sea Level PressureIn,VisibilityMPH,Wind Direction,Wind SpeedMPH,Gust SpeedMPH,PrecipitationIn,Events,Conditions,WindDirDegrees,DateUTC
12:35 AM,64.4,60.8,88,30.03,10.0,ESE,6.9,-,N/A,,Mostly Cloudy,110,2012-12-06 06:35:00
12:55 AM,64.4,61.5,90,30.04,10.0,East,5.8,-,N/A,,Overcast,80,2012-12-06 06:55:00
1:41 AM,64.4,62.6,94,30.04,5.0,SE,9.2,-,N/A,Rain,Rain,130,2012-12-06 07:41:00
1:44 AM,64.4,62.6,94,30.04,4.0,ESE,6.9,-,N/A,Rain,Rain,110,2012-12-06 07:44:00
1:45 AM,64.4,62.6,94,30.04,4.0,ESE,6.9,-,N/A,Rain,Light Rain,120,2012-12-06 07:45:00
1:55 AM,64.8,62.4,92,30.03,10.0,ESE,4.6,-,0.04,,Overcast,120,2012-12-06 07:55:00
2:55 AM,64.2,61.9,92,30.01,10.0,Calm,Calm,-,N/A,,Mostly Cloudy,0,2012-12-06 08:55:00
3:55 AM,60.8,59.7,96,30.01,10.0,ENE,3.5,-,N/A,,Clear,60,2012-12-06 09:55:00
4:55 AM,59.2,58.6,98,30.00,10.0,NE,4.6,-,N/A,,Clear,40,2012-12-06 10:55:00
5:41 AM,59.0,59.0,100,30.01,7.0,NE,4.6,-,N/A,,Clear,50,2012-12-06 11:41:00
5:47 AM,59.0,59.0,100,30.01,8.0,NE,5.8,-,N/A,,Clear,50,2012-12-06 11:47:00
5:55 AM,59.2,58.6,98,30.02,10.0,NE,5.8,-,N/A,,Clear,40,2012-12-06 11:55:00
5:58 AM,59.0,59.0,100,30.02,10.0,NE,5.8,-,N/A,,Partly Cloudy,40,2012-12-06 11:58:00
6:07 AM,59.0,59.0,100,30.02,7.0,NE,6.9,-,N/A,,Scattered Clouds,50,2012-12-06 12:07:00
6:08 AM,59.0,59.0,100,30.02,6.0,NE,6.9,-,N/A,,Mostly Cloudy,50,2012-12-06 12:08:00
6:13 AM,59.0,59.0,100,30.02,2.5,NE,5.8,-,N/A,,Mostly Cloudy,50,2012-12-06 12:13:00
6:14 AM,60.8,59.0,94,30.02,2.0,ENE,5.8,-,N/A,,Mostly Cloudy,60,2012-12-06 12:14:00
6:15 AM,60.8,59.0,94,30.02,2.0,ENE,5.8,-,N/A,,Mostly Cloudy,60,2012-12-06 12:15:00
6:16 AM,60.8,59.0,94,30.02,1.8,ENE,6.9,-,N/A,,Mostly Cloudy,60,2012-12-06 12:16:00
6:17 AM,60.8,59.0,94,30.02,1.8,ENE,6.9,-,N/A,,Mostly Cloudy,70,2012-12-06 12:17:00
6:23 AM,60.8,59.0,94,30.02,2.0,ENE,6.9,-,N/A,,Mostly Cloudy,70,2012-12-06 12:23:00
6:27 AM,59.0,59.0,100,30.02,2.0,East,6.9,-,N/A,,Mostly Cloudy,80,2012-12-06 12:27:00
6:32 AM,59.0,59.0,100,30.03,2.0,ENE,5.8,-,N/A,,Scattered Clouds,70,2012-12-06 12:32:00
6:33 AM,59.0,59.0,100,30.02,1.8,ENE,5.8,-,N/A,,Scattered Clouds,70,2012-12-06 12:33:00
6:37 AM,59.0,59.0,100,30.03,2.0,ENE,5.8,-,N/A,,Scattered Clouds,70,2012-12-06 12:37:00
6:39 AM,59.0,59.0,100,30.03,2.5,ENE,5.8,-,N/A,,Scattered Clouds,70,2012-12-06 12:39:00
6:41 AM,59.0,59.0,100,30.03,3.0,ENE,5.8,-,N/A,,Partly Cloudy,70,2012-12-06 12:41:00
6:55 AM,59.0,58.5,98,30.04,7.0,ENE,3.5,-,N/A,,Clear,60,2012-12-06 12:55:00
7:55 AM,61.2,60.4,97,30.04,10.0,ENE,4.6,-,N/A,,Clear,60,2012-12-06 13:55:00
8:55 AM,65.8,63.3,92,30.04,10.0,East,6.9,-,N/A,,Clear,90,2012-12-06 14:55:00
9:55 AM,71.8,62.8,73,30.04,10.0,ESE,10.4,-,N/A,,Clear,120,2012-12-06 15:55:00
10:55 AM,73.2,62.2,68,30.02,10.0,ESE,12.7,-,N/A,,Clear,120,2012-12-06 16:55:00
11:55 AM,74.5,60.3,61,30.00,10.0,ESE,15.0,19.6,N/A,,Clear,120,2012-12-06 17:55:00
12:55 PM,74.7,60.3,61,29.98,10.0,SE,11.5,-,N/A,,Clear,130,2012-12-06 18:55:00
1:55 PM,73.9,59.2,60,29.97,10.0,ESE,12.7,-,N/A,,Clear,120,2012-12-06 19:55:00
2:55 PM,73.6,59.5,61,29.97,10.0,SE,10.4,-,N/A,,Clear,130,2012-12-06 20:55:00
3:55 PM,72.0,59.7,65,29.97,10.0,SE,8.1,-,N/A,,Clear,130,2012-12-06 21:55:00
4:55 PM,69.1,63.0,81,29.97,10.0,ESE,9.2,-,N/A,,Clear,120,2012-12-06 22:55:00
5:55 PM,67.6,63.3,86,29.97,10.0,ESE,8.1,-,N/A,,Clear,120,2012-12-06 23:55:00
6:55 PM,66.9,63.3,88,29.98,10.0,ESE,6.9,-,N/A,,Clear,120,2012-12-07 00:55:00
7:55 PM,66.2,63.0,89,29.98,10.0,East,4.6,-,N/A,,Clear,100,2012-12-07 01:55:00
8:55 PM,65.8,62.6,89,29.98,10.0,ESE,9.2,-,N/A,,Clear,120,2012-12-07 02:55:00
9:55 PM,66.0,63.1,90,29.98,10.0,ESE,8.1,-,N/A,,Clear,120,2012-12-07 03:55:00
10:55 PM,65.3,63.1,93,29.97,10.0,ESE,5.8,-,N/A,,Clear,120,2012-12-07 04:55:00
11:55 PM,62.1,60.8,96,29.97,10.0,NE,4.6,-,N/A,,Clear,40,2012-12-07 05:55:00